Atqasuk Edward Burnell Sr Mem, AK

11:08 AM AKDT on July 17, 2019 (GMT -0800)
Atqasuk Edward Burnell Sr Mem

Weather History for PATQ - May, 2019

Change the Weather History Date:

Thursday, May 9, 2019

  Actual Average (PABR) Record (PABR)
Temperature  
Mean Temperature 21 °F -  
Max Temperature 25 °F 23 °F 36 °F (1968)
Min Temperature 17 °F 11 °F -12 °F (2001)
Degree Days  
Heating Degree Days 44    
Moisture  
Dew Point 18 °F    
Average Humidity 91    
Maximum Humidity 96    
Minimum Humidity 84    
Precipitation  
Precipitation 0.00 in - - ()
Sea Level Pressure  
Sea Level Pressure 30.14 in    
Wind  
Wind Speed 18 mph (ENE)    
Max Wind Speed 21 mph    
Max Gust Speed -    
Visibility 6 miles    
Events Snow    
Averages and records for this station are not official NWS values.
T = Trace of Precipitation, MM = Missing Value Source: NWS Daily Summary

Daily Weather History Graph

Daily Weather History Graph

Search for Another Location

Airport or City:

Astronomy

May. 09, 2019 Rise Set
Actual Time 3:54 AM AKDT 1:05 AM AKDT
Civil Twilight Sun does not set Sun does not set
Nautical Twilight Sun does not set Sun does not set
Astronomical Twilight Sun does not set Sun does not set
Moon No Moon Rise No Moon Set
Length of Visible Light 24h 00m
Length of Day
21h 11m
Waxing Crescent, 26% of the Moon is Illuminated
May 9
Waxing Crescent
May 11
First Quarter
May 18
Full
May 26
Last Quarter
Jun 3
New

Hourly Weather History & Observations

Time (AKDT) Temp. Windchill Dew Point Humidity Pressure Visibility Wind Dir Wind Speed Gust Speed Precip Events Conditions
12:23 AM 19.4 °F 4.1 °F 17.6 °F 93% 30.08 in 9.0 mi ENE 18.4 mph - 0.00 in Snow Light Snow
12:35 AM 19.4 °F 4.1 °F 17.6 °F 93% 30.09 in 9.0 mi ENE 18.4 mph - 0.00 in Snow Light Snow
12:56 AM 19.0 °F 4.5 °F 17.1 °F 92% 30.12 in 9.0 mi ENE 16.1 mph - 0.00 in Snow Light Snow
1:56 AM 18.0 °F 2.2 °F 17.1 °F 96% 30.12 in 9.0 mi ENE 18.4 mph - 0.00 in Snow Light Snow
2:53 AM 17.6 °F 1.3 °F 15.8 °F 93% 30.10 in 8.0 mi ENE 19.6 mph - 0.00 in Snow Light Snow
2:56 AM 18.0 °F 1.3 °F 16.0 °F 92% 30.12 in 8.0 mi ENE 20.7 mph - 0.00 in Snow Light Snow
3:46 AM 17.6 °F 1.3 °F 15.8 °F 93% 30.10 in 1.8 mi ENE 19.6 mph - 0.00 in Snow Light Snow
3:56 AM 18.0 °F 1.7 °F 16.0 °F 92% 30.13 in 1.8 mi ENE 19.6 mph - 0.00 in Snow Light Snow
4:07 AM 17.6 °F 1.3 °F 15.8 °F 93% 30.10 in 2.5 mi ENE 19.6 mph - 0.00 in Snow Light Snow
4:24 AM 17.6 °F 1.3 °F 15.8 °F 93% 30.10 in 1.2 mi ENE 19.6 mph - 0.00 in Snow Light Snow
4:35 AM 17.6 °F 1.3 °F 15.8 °F 93% 30.11 in 1.0 mi ENE 19.6 mph - 0.00 in Snow Light Snow
4:41 AM 17.6 °F 1.3 °F 15.8 °F 93% 30.11 in 1.2 mi ENE 19.6 mph - 0.00 in Snow Light Snow
4:56 AM 18.0 °F 1.7 °F 16.0 °F 92% 30.13 in 1.8 mi ENE 19.6 mph - 0.00 in Snow Light Snow
5:11 AM 17.6 °F 1.3 °F 15.8 °F 93% 30.10 in 1.0 mi ENE 19.6 mph - 0.00 in Snow Light Snow
5:35 AM 17.6 °F 1.3 °F 15.8 °F 93% 30.11 in 1.8 mi ENE 19.6 mph - 0.00 in Snow Light Snow
5:56 AM 18.0 °F 1.7 °F 16.0 °F 92% 30.13 in 1.2 mi ENE 19.6 mph - 0.00 in Snow Light Snow
6:10 AM 17.6 °F 1.3 °F 15.8 °F 93% 30.11 in 2.5 mi ENE 19.6 mph - 0.00 in Snow Light Snow
6:36 AM 17.6 °F 2.2 °F 15.8 °F 93% 30.11 in 1.2 mi ENE 17.3 mph - 0.00 in Snow Light Snow
6:56 AM 18.0 °F 2.2 °F 16.0 °F 92% 30.14 in 2.5 mi East 18.4 mph - 0.00 in Snow Light Snow
7:14 AM 17.6 °F 1.7 °F 15.8 °F 93% 30.12 in 1.8 mi ENE 18.4 mph - 0.00 in Snow Light Snow
7:56 AM 18.0 °F 1.7 °F 16.0 °F 92% 30.14 in 1.5 mi East 19.6 mph - 0.00 in Snow Light Snow
8:06 AM 17.6 °F 0.9 °F 15.8 °F 93% 30.12 in 2.5 mi East 20.7 mph - 0.00 in Snow Light Snow
8:42 AM 19.4 °F 4.1 °F 15.8 °F 86% 30.13 in 1.8 mi East 18.4 mph - 0.00 in Snow Light Snow
8:53 AM 19.4 °F 4.5 °F 15.8 °F 86% 30.13 in 2.0 mi East 17.3 mph - 0.00 in Snow Light Snow
8:56 AM 19.0 °F 3.6 °F 16.0 °F 88% 30.16 in 2.0 mi East 18.4 mph - 0.00 in Snow Light Snow
9:32 AM 19.4 °F 4.1 °F 15.8 °F 86% 30.13 in 4.0 mi ENE 18.4 mph - 0.00 in Snow Light Snow
9:56 AM 19.0 °F 3.6 °F 16.0 °F 88% 30.16 in 4.0 mi East 18.4 mph - 0.00 in Snow Light Snow
10:56 AM 19.9 °F 4.3 °F 17.1 °F 89% 30.16 in 9.0 mi East 19.6 mph - 0.00 in Snow Light Snow
11:56 AM 21.9 °F 7.3 °F 18.0 °F 85% 30.17 in 9.0 mi East 18.4 mph - 0.00 in Snow Light Snow
12:56 PM 21.9 °F 7.8 °F 19.0 °F 89% 30.17 in 9.0 mi East 17.3 mph - 0.00 in Snow Light Snow
1:56 PM 24.1 °F 11.0 °F 19.9 °F 84% 30.18 in 9.0 mi East 16.1 mph - 0.00 in Snow Light Snow
2:56 PM 24.1 °F 11.0 °F 19.9 °F 84% 30.18 in 10.0 mi East 16.1 mph - 0.00 in   Clear
3:56 PM 25.0 °F 11.3 °F 21.0 °F 85% 30.18 in 10.0 mi East 18.4 mph - N/A   Clear
4:56 PM 25.0 °F 11.7 °F 21.0 °F 85% 30.18 in 10.0 mi East 17.3 mph - N/A   Clear
5:56 PM 25.0 °F 12.2 °F 21.0 °F 85% 30.18 in 10.0 mi East 16.1 mph - N/A   Clear
6:56 PM 25.0 °F 12.2 °F 21.9 °F 88% 30.18 in 10.0 mi East 16.1 mph - N/A   Clear
7:56 PM 25.0 °F 11.7 °F 21.9 °F 88% 30.17 in 10.0 mi East 17.3 mph - N/A   Clear
8:56 PM 24.1 °F 11.5 °F 21.9 °F 91% 30.17 in 10.0 mi East 15.0 mph - N/A   Clear
9:56 PM 24.1 °F 12.0 °F 21.9 °F 91% 30.17 in 10.0 mi East 13.8 mph - N/A   Clear
10:56 PM 24.1 °F 12.0 °F 21.9 °F 91% 30.17 in 10.0 mi East 13.8 mph - N/A   Clear
11:23 PM 23.0 °F 9.6 °F 21.2 °F 93% 30.14 in 10.0 mi East 16.1 mph - N/A   Partly Cloudy
11:45 PM 23.0 °F 10.1 °F 21.2 °F 93% 30.14 in 10.0 mi East 15.0 mph - N/A   Mostly Cloudy
11:56 PM 23.0 °F 10.6 °F 21.9 °F 96% 30.16 in 10.0 mi East 13.8 mph - N/A   Overcast